{"data":{"norad_id":58063,"intl_designator":"2023-158N","name":"STARLINK-30585","alt_names":[],"object_type":"PAYLOAD","status":"ACTIVE","operator":null,"country":"US","launch_date":"2023-10-13","launch_site_code":"AFETR","launch_vehicle":null,"mission":null,"orbit_class":"UNKNOWN","rcs_meters":null,"size_class":null,"mass_kg":null,"dimensions":null,"purposes":["comms"],"wikipedia_slug":null,"has_3d_model":false,"image_url":null,"decayed_at":null,"tle_current":{"epoch":"2026-09-19T14:09:23.023584Z","epoch_age_seconds":216296,"freshness":"STALE","line1":"1 58063U 23158N   26262.58984981  .00000558  00000+0  29825-4 0  9998","line2":"2 58063  43.0023  12.0737 0001400 265.3937  94.6754 15.27572943163220","mean_motion":15.27572943,"eccentricity":0.00014,"inclination_deg":43.0023,"raan_deg":12.0737,"arg_perigee_deg":265.3937,"mean_anomaly_deg":94.6754,"bstar":2.9825e-5,"rev_number":16322,"period_min":94.267184202149,"perigee_km":482.10965830592,"apogee_km":484.03079632957,"semimajor_km":6861.2072273177,"source":"CELESTRAK","updated_at":"2026-09-21T09:00:33.779375Z"}}}